www.pogodaiklimat.ru

Погода и климат >> Архив погоды >> Норвегия >> Мелсом


ПОГОДА в Мелсоме

  • Прогноз погоды в Мелсоме
  • Монитор погоды в Мелсоме

АРХИВ ПОГОДЫ в Мелсоме

Время (UTC), дата Ветер
(напр.,м/с)
 
Видим.   Явления Облачность Т
(С)
Тd
(С)
f
(%)
Тe
(С)
Тes
(С)
Комфортность P
(гПа)
Po
(гПа)
Тmin
(С)
Tmax
(С)
R
(мм)
R24
(мм)
S
(см)
19 18.06 Ю 2
{7}
н/о н/о +16.3 +11.9 75 +16 +16 1011.7 1008.6
20 18.06 Ю 2
{6}
н/о н/о +15.3 +11.7 79 +15 +15 1011.8 1008.7
21 18.06 Ю 3
{6}
н/о н/о +14.3 +12.3 88 +13 +13 1011.9 1008.8
22 18.06 Ю 3
{5}
н/о н/о +13.9 +12.3 90 +13 +13 1011.6 1008.5
23 18.06 ЮЗ 3
{5}
н/о н/о +13.5 +12.2 92 +12 +12 1011.6 1008.5
00 19.06 ЮЗ 2
{7}
н/о н/о +13.1 +12.0 93 +12 +12 1011.6 1008.5
01 19.06 СВ 1
{4}
н/о н/о +12.5 +11.7 95 +12 +12 1011.3 1008.2
02 19.06 ЮЗ 1
{1}
н/о н/о +12.0 +11.4 96 +12 +12 1011.5 1008.4
03 19.06 ЮЗ 1
{2}
н/о н/о +12.0 +11.4 96 +12 +12 1011.4 1008.3
04 19.06 штиль 0
{1}
н/о н/о +12.5 +11.9 96 +12 +12 1011.3 1008.2
05 19.06 С 1
{2}
н/о н/о +14.4 +13.0 91 +15 +15 1011.5 1008.4
06 19.06 С 1
{4}
н/о н/о +15.4 +12.0 80 +16 +16 1011.7 1008.6 +11.9 +17.5
07 19.06 СВ 1
{2}
н/о н/о +16.9 +11.6 71 +18 +18 1011.7 1008.6
08 19.06 СВ 1
{3}
н/о н/о +17.1 +12.2 73 +18 +18 1011.6 1008.5
09 19.06 СВ 1
{3}
н/о н/о +17.2 +10.8 66 +18 +18 1011.6 1008.5
10 19.06 В 1
{3}
н/о н/о +18.2 +12.7 70 +20 +20 1011.6 1008.5
11 19.06 Ю 1
{3}
н/о н/о +17.6 +12.3 71 +19 +19 1011.5 1008.4
12 19.06 Ю 1
{3}
н/о н/о +17.2 +10.8 66 +18 +18 1011.2 1008.1
13 19.06 Ю 1
{3}
н/о н/о +17.1 +12.0 72 +18 +18 1011.1 1008.0
14 19.06 штиль 0
{2}
н/о н/о +16.9 +11.2 69 +17 +17 1010.5 1007.4
15 19.06 З 1
{2}
н/о н/о +16.9 +9.3 61 +18 +18 1010.2 1007.1
16 19.06 С 1
{2}
н/о н/о +16.2 +12.6 79 +17 +17 1009.3 1006.2
17 19.06 С 2
{3}
н/о н/о +16.5 +11.7 73 +17 +17 1008.3 1005.2
18 19.06 СВ 2
{4}
н/о н/о +15.6 +11.8 78 +16 +16 1007.9 1004.8 +15.4 +19.3
19 19.06 С 1
{5}
н/о н/о +15.2 +10.6 74 +16 +16 1007.8 1004.7
20 19.06 С 2
{4}
н/о н/о +13.9 +12.3 90 +13 +13 1007.1 1004.0 2
21 19.06 С 2
{6}
н/о н/о +13.4 +12.0 91 +13 +13 1006.7 1003.6 6
22 19.06 СВ 2
{5}
н/о н/о +12.9 +11.8 93 +12 +12 1005.7 1002.6 5
23 19.06 С 2
{5}
н/о н/о +13.1 +12.2 94 +12 +12 1005.1 1002.0 0.1
00 20.06 С 2
{6}
н/о н/о +12.8 +12.0 95 +12 +12 1004.6 1001.5
01 20.06
{5}
н/о н/о +12.6 +11.7 94 1004.3 1001.2
02 20.06 С 1
{4}
н/о н/о +12.5 +11.4 93 +12 +12 1004.0 1000.9
03 20.06 С 2
{3}
н/о н/о +12.4 +11.3 93 +11 +11 1004.0 1000.9
04 20.06 С 1
{3}
н/о н/о +12.5 +11.2 92 +12 +12 1004.2 1001.1
05 20.06 С 1
{3}
н/о н/о +13.1 +11.7 91 +13 +13 1004.1 1001.0
06 20.06 С 1
{5}
н/о н/о +14.5 +12.0 85 +15 +15 1004.2 1001.1 +12.4 +15.6
07 20.06 СЗ 1
{4}
н/о н/о +15.6 +12.4 81 +16 +16 1004.0 1000.9
08 20.06 В 1
{3}
н/о н/о +16.5 +13.2 81 +17 +17 1004.4 1001.3
09 20.06 Ю 1
{3}
н/о н/о +16.2 +14.2 88 +17 +17 1004.8 1001.7
10 20.06 Ю 1
{3}
н/о н/о +15.8 +14.5 92 +16 +16 1004.9 1001.8 0.3
11 20.06 Ю 1
{3}
н/о н/о +16.3 +15.0 92 +17 +17 1004.9 1001.8 0.4
12 20.06 Ю 2
{4}
н/о н/о +17.4 +14.9 85 +18 +18 1005.0 1001.9
13 20.06 ЮЗ 2
{5}
н/о н/о +16.4 +13.5 83 +17 +17 1005.1 1002.0
14 20.06 ЮЗ 2
{6}
н/о н/о +16.4 +13.7 84 +17 +17 1005.3 1002.2
15 20.06 Ю 2
{5}
н/о н/о +16.8 +13.7 82 +17 +17 1005.1 1002.0
16 20.06 Ю 3
{6}
н/о н/о +16.8 +13.5 81 +17 +17 1005.3 1002.2
17 20.06 Ю 2
{7}
н/о н/о +16.9 +13.8 82 +17 +17 1005.2 1002.1
18 20.06 Ю 2
{7}
н/о н/о +16.6 +13.7 83 +17 +17 1005.1 1002.0 +14.5 +18.0
19 20.06 Ю 3
{6}
н/о н/о +16.2 +13.9 86 +16 +16 1005.4 1002.3
20 20.06 Ю 2
{5}
н/о н/о +15.4 +13.1 86 +15 +15 1005.5 1002.4
21 20.06 ЮЗ 2
{4}
н/о н/о +14.7 +12.0 84 +14 +14 1005.7 1002.6
22 20.06 ЮЗ 2
{5}
н/о н/о +14.1 +10.3 78 +14 +14 1006.2 1003.1
23 20.06 Ю 1
{5}
н/о н/о +13.7 +9.2 74 +14 +14 1006.8 1003.7
00 21.06 ЮЗ 2
{6}
н/о н/о +12.5 +8.2 75 +12 +12 1007.5 1004.4
01 21.06 ЮЗ 2
{5}
н/о н/о +11.9 +7.8 76 +11 +11 1007.9 1004.8
02 21.06 ЮЗ 2
{4}
н/о н/о +11.1 +7.8 80 +10 +10 1008.1 1005.0
03 21.06 ЮЗ 3
{6}
н/о н/о +11.0 +8.4 84 +9 +9 1008.3 1005.2
04 21.06 ЮЗ 3
{7}
н/о н/о +11.9 +9.1 83 +10 +10 1008.6 1005.5
05 21.06 ЮЗ 3
{6}
н/о н/о +13.2 +9.7 79 +12 +12 1009.0 1005.9
06 21.06 ЮЗ 2
{7}
н/о н/о +14.3 +9.5 73 +14 +14 1009.1 1006.0 +10.6 +16.6
07 21.06 ЮЗ 3
{6}
н/о н/о +15.0 +8.5 65 +14 +14 1009.5 1006.4
08 21.06 ЮЗ 3
{8}
н/о н/о +16.1 +6.5 53 +16 +16 1009.9 1006.8
09 21.06 ЮЗ 3
{8}
н/о н/о +16.4 +7.1 54 +16 +16 1010.5 1007.4
10 21.06 ЮЗ 4
{10}
н/о н/о +16.8 +9.3 61 +16 +16 1010.7 1007.6
11 21.06 Ю 4
{11}
н/о н/о +16.1 +8.8 62 +15 +15 1010.7 1007.6
12 21.06 Ю 4
{11}
н/о н/о +17.3 +8.2 55 +17 +17 1010.8 1007.7
13 21.06 ЮЗ 4
{10}
н/о н/о +16.5 +10.6 68 +16 +16 1011.2 1008.1
14 21.06 ЮЗ 2
{7}
н/о н/о +16.3 +7.3 55 +16 +16 1011.3 1008.2
15 21.06 Ю 4
{8}
н/о н/о +17.0 +7.6 54 +17 +17 1010.7 1007.6
16 21.06 ЮЗ 3
{10}
н/о н/о +16.9 +9.6 62 +17 +17 1010.5 1007.4
17 21.06 ЮЗ 4
{12}
н/о н/о +16.4 +7.6 56 +16 +16 1010.6 1007.5
18 21.06 З 3
{12}
н/о н/о +13.5 +7.9 69 +12 +12 1011.4 1008.3 +13.5 +17.6
19 21.06 ЮЗ 2
{7}
н/о н/о +13.6 +6.9 64 +13 +13 1011.3 1008.2 0.1
20 21.06 ЮЗ 1
{6}
н/о н/о +12.3 +7.8 74 +12 +12 1011.8 1008.7
21 21.06 ЮЗ 2
{5}
н/о н/о +11.8 +8.1 78 +11 +11 1012.2 1009.1
22 21.06 ЮЗ 3
{6}
н/о н/о +12.0 +5.2 63 +11 +11 1012.8 1009.7
23 21.06 ЮЗ 3
{8}
н/о н/о +11.9 +3.9 58 +11 +11 1013.5 1010.4
00 22.06 ЮЗ 1
{8}
н/о н/о +10.6 +4.1 64 +11 +11 1014.3 1011.1
01 22.06 ЮЗ 2
{4}
н/о н/о +9.1 +4.5 73 +8 +8 1014.9 1011.7
02 22.06 ЮВ 1
{5}
н/о н/о +8.7 +4.3 74 +8 +8 1015.7 1012.5
03 22.06 Ю 1
{3}
н/о н/о +8.6 +4.6 76 +8 +8 1016.4 1013.2
04 22.06 ЮЗ 2
{5}
н/о н/о +10.4 +4.6 67 +9 +9 1017.1 1013.9
05 22.06 ЮЗ 2
{5}
н/о н/о +11.8 +5.2 64 +11 +11 1017.6 1014.4
06 22.06 З 3
{6}
н/о н/о +13.1 +5.5 60 +12 +12 1018.0 1014.9 +8.3 +13.9
07 22.06 З 2
{7}
н/о н/о +14.9 +5.7 54 +15 +15 1018.5 1015.4
08 22.06 З 3
{7}
н/о н/о +16.3 +5.3 48 +16 +16 1019.0 1015.9
09 22.06 З 2
{7}
н/о н/о +17.3 +4.3 42 +18 +18 1019.1 1016.0
10 22.06 ЮЗ 3
{7}
н/о н/о +18.3 +5.5 43 +19 +19 1019.4 1016.3
11 22.06 ЮЗ 3
{7}
н/о н/о +19.4 +5.1 39 +20 +20 1019.7 1016.6
12 22.06 ЮЗ 2
{9}
н/о н/о +19.9 +2.3 31 +21 +21 комфорт 1019.7 1016.6
13 22.06 З 2
{8}
н/о н/о +19.8 +2.2 31 +21 +21 комфорт 1019.9 1016.8
14 22.06 З 2
{7}
н/о н/о +20.4 +3.2 32 +21 +21 комфорт 1019.8 1016.7
15 22.06 З 3
{8}
н/о н/о +20.2 +1.6 29 +21 +21 комфорт 1020.0 1016.9
16 22.06 З 3
{7}
н/о н/о +20.2 +2.6 31 +21 +21 комфорт 1020.0 1016.9
17 22.06 З 3
{7}
н/о н/о +19.8 +1.8 30 +20 +20 1020.3 1017.2
18 22.06 З 3
{8}
н/о н/о +19.2 +2.6 33 +20 +20 1020.3 1017.2 +13.1 +20.8
19 22.06 З 2
{6}
н/о н/о +17.5 +3.1 38 +18 +18 1020.7 1017.6
20 22.06 З 2
{5}
н/о н/о +16.1 +3.6 43 +16 +16 1021.3 1018.2
21 22.06 ЮЗ 1
{3}
н/о н/о +14.5 +3.1 46 +15 +15 1021.6 1018.5
22 22.06 штиль 0
{2}
н/о н/о +12.6 +3.6 54 +12 +12 1022.2 1019.0
23 22.06 З 1
{3}
н/о н/о +12.7 +2.3 49 +13 +13 1022.6 1019.4
00 23.06 З 1
{6}
н/о н/о +11.6 +2.9 55 +12 +12 1022.8 1019.6
01 23.06 С 1
{3}
н/о н/о +10.9 +2.7 57 +11 +11 1023.1 1019.9
02 23.06 З 1
{4}
н/о н/о +10.7 +2.3 56 +11 +11 1023.4 1020.2
03 23.06 З 1
{5}
н/о н/о +10.3 +2.4 58 +10 +10 1023.5 1020.3
04 23.06 С 1
{3}
н/о н/о +11.7 +3.5 57 +12 +12 1023.7 1020.5
05 23.06 штиль 0
{2}
н/о н/о +12.9 +6.9 67 +13 +13 1023.9 1020.7
06 23.06 З 1
{5}
н/о н/о +13.4 +5.3 58 +14 +14 1024.4 1021.2 +9.0 +19.2
07 23.06 ЮЗ 1
{3}
н/о н/о +15.1 +5.6 53 +16 +16 1024.3 1021.2
08 23.06 З 2
{4}
н/о н/о +16.1 +4.5 46 +16 +16 1024.5 1021.4
09 23.06 ЮЗ 1
{4}
н/о н/о +18.1 +6.0 45 +19 +19 1024.5 1021.4
10 23.06 С 1
{4}
н/о н/о +18.0 +5.6 44 +19 +19 1024.6 1021.5
11 23.06 Ю 2
{4}
н/о н/о +18.3 +6.2 45 +19 +19 1024.7 1021.6
12 23.06 Ю 2
{4}
н/о н/о +19.2 +8.5 50 +21 +21 комфорт 1024.6 1021.5
13 23.06 Ю 2
{5}
н/о н/о +18.5 +10.9 61 +19 +19 1024.8 1021.7
14 23.06 Ю 3
{6}
н/о н/о +18.7 +10.3 58 +19 +19 1024.8 1021.7
15 23.06 Ю 3
{7}
н/о н/о +18.7 +9.2 54 +19 +19 1024.6 1021.5
16 23.06 Ю 3
{6}
н/о н/о +18.2 +9.3 56 +19 +19 1024.6 1021.5
17 23.06 Ю 2
{5}
н/о н/о +18.5 +8.8 53 +19 +19 1024.3 1021.2
18 23.06 Ю 3
{7}
н/о н/о +18.4 +8.7 53 +19 +19 1024.4 1021.3 +13.4 +19.5
19 23.06 Ю 3
{7}
н/о н/о +16.9 +9.6 62 +17 +17 1024.7 1021.6
20 23.06 ЮЗ 1
{5}
н/о н/о +15.2 +9.6 69 +16 +16 1025.5 1022.4
21 23.06 З 1
{2}
н/о н/о +13.0 +9.3 78 +13 +13 1025.9 1022.7
22 23.06 ЮЗ 1
{2}
н/о н/о +11.7 +8.9 83 +12 +12 1026.5 1023.3
23 23.06 штиль 0
{2}
н/о н/о +10.9 +9.0 88 +10 +10 1026.9 1023.7
00 24.06 штиль 0
{7}
н/о н/о +10.4 +9.2 92 +10 +10 1027.6 1024.4
01 24.06
{2}
н/о н/о +10.4 +9.2 92 1027.8 1024.6
02 24.06 СВ 1
{2}
н/о н/о +10.9 +8.3 84 +11 +11 1028.0 1024.8
03 24.06 С 1
{2}
н/о н/о +11.0 +8.1 82 +11 +11 1028.4 1025.2
04 24.06 СВ 1
{3}
н/о н/о +11.6 +7.7 77 +12 +12 1028.6 1025.4
05 24.06 С 1
{3}
н/о н/о +12.7 +8.0 73 +13 +13 1028.9 1025.7
06 24.06 С 1
{3}
н/о н/о +14.9 +8.4 65 +16 +16 1029.2 1026.0 +10.2 +18.5
07 24.06 С 3
{5}
н/о н/о +16.1 +7.3 56 +16 +16 1029.2 1026.1
08 24.06 С 2
{5}
н/о н/о +18.2 +6.7 47 +19 +19 1029.4 1026.3
09 24.06 С 1
{4}
н/о н/о +18.9 +7.7 48 +21 +21 комфорт 1029.5 1026.4
10 24.06 СВ 2
{5}
н/о н/о +19.7 +9.3 51 +21 +21 комфорт 1029.3 1026.2
11 24.06 ЮВ 1
{5}
н/о н/о +20.2 +9.2 49 +23 +23 комфорт 1029.2 1026.1
12 24.06 Ю 2
{5}
н/о н/о +20.0 +9.0 49 +22 +22 комфорт 1029.0 1025.9
13 24.06 ЮЗ 1
{4}
н/о н/о +22.0 +8.5 42 +23 +23 комфорт 1028.7 1025.6
14 24.06 В 1
{3}
н/о н/о +22.4 +9.2 43 +24 +24 комфорт 1027.7 1024.6
15 24.06 Ю 2
{5}
н/о н/о +21.8 +9.4 45 +23 +23 комфорт 1027.6 1024.5
16 24.06 Ю 1
{4}
н/о н/о +21.2 +10.4 50 +23 +23 комфорт 1027.6 1024.5
17 24.06 Ю 2
{4}
н/о н/о +19.6 +10.9 57 +21 +21 комфорт 1027.5 1024.4
18 24.06 Ю 1
{5}
н/о н/о +19.5 +11.3 59 +22 +22 комфорт 1027.4 1024.3 +14.9 +23.1
19 24.06 штиль 0
{1}
н/о н/о +18.9 +9.9 56 +19 +19 1027.0 1023.9
20 24.06 штиль 0
{1}
н/о н/о +17.5 +10.9 65 +18 +18 1027.1 1024.0
21 24.06 штиль 0
{2}
н/о н/о +16.4 +10.0 66 +16 +16 1027.4 1024.3
22 24.06 штиль 0
{1}
н/о н/о +15.7 +10.0 69 +16 +16 1027.5 1024.4
23 24.06 С 1
{2}
н/о н/о +15.5 +11.7 78 +16 +16 1027.1 1024.0
00 25.06 штиль 0
{2}
н/о н/о +15.4 +12.0 80 +15 +15 1026.9 1023.8
01 25.06 С 1
{2}
н/о н/о +14.9 +11.7 81 +15 +15 1026.5 1023.4
02 25.06 штиль 0
{1}
н/о н/о +14.7 +11.5 81 +14 +14 1026.1 1023.0
03 25.06 СВ 1
{1}
н/о н/о +14.6 +11.4 81 +15 +15 1025.9 1022.8
04 25.06 СВ 1
{1}
н/о н/о +14.6 +11.9 84 +15 +15 1026.1 1022.9
05 25.06 С 1
{2}
н/о н/о +15.2 +12.0 81 +16 +16 1025.9 1022.8
06 25.06 С 1
{2}
н/о н/о +16.1 +12.7 80 +17 +17 1025.7 1022.6 +14.5 +19.5
07 25.06 ЮЗ 1
{3}
н/о н/о +17.2 +11.0 67 +18 +18 1025.7 1022.6
08 25.06 Ю 1
{2}
н/о н/о +17.5 +10.2 62 +19 +19 1025.5 1022.4
09 25.06 Ю 2
{3}
н/о н/о +17.5 +10.9 65 +18 +18 1025.4 1022.3
10 25.06 штиль 0
{3}
н/о н/о +16.7 +10.3 66 +17 +17 1025.6 1022.5
11 25.06 штиль 0
{1}
н/о н/о +16.8 +10.7 67 +17 +17 1025.4 1022.3
12 25.06 С 1
{3}
н/о н/о +16.4 +10.9 70 +17 +17 1025.0 1021.9 0.4
13 25.06 С 2
{4}
н/о н/о +16.0 +12.9 82 +16 +16 1024.5 1021.4
14 25.06 С 2
{4}
н/о н/о +16.4 +12.0 75 +17 +17 1024.1 1021.0
15 25.06 С 2
{5}
н/о н/о +15.6 +10.8 73 +16 +16 1024.0 1020.9
16 25.06
{6}
н/о н/о +14.9 +10.5 75 1023.8 1020.7
17 25.06 С 3
{7}
н/о н/о +14.2 +9.4 73 +13 +13 1023.7 1020.6

 

Местоположение метеостанции Мелсом (Норвегия): широта 59.23 долгота 10.35 высота над уровнем моря 26 м.

В архиве по умолчанию представлена погода в Мелсоме за последнюю неделю. Архивные данные за месяц целиком и за предыдущие месяцы, начиная с января 2011 года, Вы можете получить, выбрав интересующий диапазон дат из раскрывающегося списка и нажав кнопку "Ввод!".


*Определитесь, кто Вы:
робот инопланетянин человек

Внимание! Время в таблицах - всемирное. Для получения местного времени необходимо прибавить поправку, которая равна 1 ч.

Смотрите также архив погоды в соседних городах и на ближайших метеорологических станциях:

Погода на Маяке Ferder (Норвегия) (25 км)
Погода на Гуллхолмене (Норвегия) (26 км)
Погода на Маяке Stromtangen (Норвегия) (29 км)
Погода в Рюгге (Норвегия) (31 км)
Погода на Маяке Svenner (Норвегия) (31 км)
Погода в Порсгрунне (Норвегия) (42 км)
Погода в Санде-Галлеберге (Норвегия) (44 км)
Погода в Сарпсборге (Норвегия) (44 км)
Погода в Нордкостере (Швеция) (52 км)
Погода в Асе (Норвегия) (54 км)

Пояснения к столбцам:

Ветер - указаны скорость ветра в м/с - средняя за 10 мин, порывы в срок и между сроками (в фигурных скобках) и направление, откуда дует ветер: С - северный, СВ - северо-восточный, В - восточный, ЮВ - юго-восточный, Ю - южный, ЮЗ - юго-западный, З - западный, СЗ - северо-западный.
Видимость - горизонтальная дальность видимости в метрах или километрах. При видимости от 1 до 10 км при отсутствии осадков обычно наблюдается дымка, при ухудшении видимости до 1 км и менее - туман. В сухую погоду видимость может ухудшаться дымом, пылью или мглою.
Явления - указаны атмосферные явления, наблюдавшиеся в срок или в последний час перед сроком; фигурными скобками обозначены явления, наблюдавшиеся между сроками (за 1-3 часа до срока); квадратными скобками обозначены град или гололедные отложения с указанием их диаметра в мм.
Облачность - указаны через наклонную черту общая и нижняя облачность в баллах и высота нижней границы облаков в метрах; квадратными скобками обозначены формы облаков: Ci - перистые, Cs - перисто-слоистые, Cc - перисто-кучевые, Ac - высококучевые, As - высокослоистые, Sc - слоисто-кучевые, Ns - слоисто-дождевые, Cu - кучевые, Cb - кучево-дождевые. Подробнее классификацию облаков см. в Атласе облаков (PDF).
T - Температура воздуха - температура, измеренная на высоте 2 м над землей.
Td - Температура точки росы - температура, при понижении до которой содержащийся в воздухе водяной пар достигнет насыщения.
f - Относительная влажность воздуха - влажноcть воздуха, измеренная на высоте 2 м над землей.
Te - Эффективная температура - температура, которую ощущает одетый по сезону человек в тени. Характеристика душности погоды. При расчете учитывается влияние влажности воздуха и скорости ветра на теплоощущения человека.
Tes - Эффективная температура на солнце - температура, которую ощущает человек, с поправкой на солнечный нагрев. Характеристика знойности погоды. Зависит от высоты солнца над горизонтом, облачности и скорости ветра. Ночью, в пасмурную погоду, а также при ветре 12 м/с и более поправка равна нулю.
P - Атмосферное давление - приведенное к уровню моря атмосферное давление.
Po - Атмосферное давление - измеренное на уровне метеостанции атмосферное давление.
Tmin - Минимальная температура - минимум температуры воздуха на высоте 2 м над землей.
Tmax - Максимальная температура - максимум температуры воздуха на высоте 2 м над землей.
R - Количество осадков - Количество выпавших осадков за период времени, мм. При наведении курсора мыши на число - период времени, за который выпало указанное количество осадков.
R24 - Количество осадков - Количество выпавших осадков за 24 часа, мм.
S - Снежный покров - Высота снежного покрова, см. При наведении курсора мыши на число - состояние снежного покрова и степень покрытия местности в баллах.